Regional Weather Roundup
Issued by NWS State College, PA

Home | Current Version | Previous Version | Graphics & Text | Print | Product List | Glossary Off
Versions: 1 2 3 4 5 6 7 8 9 10 11 12 13 14 15 16 17 18 19 20 21 22 23 24 25 26 27 28 29 30 31 32 33 34 35 36 37 38 39 40 41 42 43 44 45 46 47 48 49 50

000
ASUS41 KCTP 240603
RWRCTP

REGIONAL WEATHER ROUNDUP
NATIONAL WEATHER SERVICE STATE COLLEGE PA
200 AM EDT FRI MAR 24 2017

Note: "fair" indicates few or no clouds below 12,000 feet with no
significant weather and/or obstructions to visibility.

* = STATION THAT DOES NOT REPORT PRECIPITATION /E.G. RAIN...SNOW...ETC/
    THUNDER OR FOG.

PAZ002>004-007>009-013>016-020>023-029>032-240700-
WESTERN PENNSYLVANIA

CITY           SKY/WX    TMP DP  RH WIND       PRES   REMARKS
ERIE           CLOUDY    43   9  24 S17G24    30.18F
MEADVILLE      CLOUDY    38   8  29 SE6       30.20F
FRANKLIN*      CLOUDY    37   7  28 S12       30.24F
NEW CASTLE     FAIR      39  12  33 S5        30.24F
BEAVER COUNTY  NOT AVBL
BUTLER*        CLOUDY    39  12  33 SE6       30.27S
PITTSBURGH INT CLOUDY    41  15  35 SE7       30.25F
PITTSBURGH     CLOUDY    40  13  33 SE8       30.25F
INDIANA*       CLEAR     39  14  35 S12       30.30F
LATROBE        CLOUDY    41  14  33 CALM      30.28F
WASHINGTON CO* PTCLDY    34  19  55 SE3       30.27F
$$

PAZ004>006-010>012-017>019-024>028-033>037-041-042-045-046-049>053-240700-
CENTRAL PENNSYLVANIA

CITY           SKY/WX    TMP DP  RH WIND       PRES   REMARKS
BRADFORD       CLOUDY    34   8  33 SE7       30.24F
DUBOIS         CLOUDY    34   9  35 SE9       30.26F
CLEARFIELD       N/A    N/A N/A N/A MISG      30.31F
JOHNSTOWN      CLOUDY    35  12  38 S10       30.29F
ALTOONA        CLOUDY    37  13  37 W3        30.36F
STATE COLLEGE  CLOUDY    34  10  36 SW5       30.36F
WILLIAMSPORT   PTCLDY    33  15  47 E7        30.42F
SELINSGROVE    PTCLDY    32  17  54 SW5       30.45F
FT INDIANTOWN  CLEAR     25  18  76 NE3       30.48F
CAPITAL CITY   CLEAR     36  17  46 SE9       30.47F
HARRISBURG     PTCLDY    36  22  56 S7        30.48F
YORK           CLEAR     34  20  56 S6        30.47F
$$

PAZ038>040-043-044-047-048-054-055-060>062-067>071-240700-
EASTERN PENNSYLVANIA

CITY           SKY/WX    TMP DP  RH WIND       PRES   REMARKS
SCRANTON       CLEAR     31  12  45 CALM      30.44R
MOUNT POCONO   CLOUDY    23   7  50 S6        30.42R
ALLENTOWN      CLEAR     26  15  63 NW3       30.51R
QUAKERTOWN*    CLEAR     23  19  86 CALM      30.52R
READING        CLOUDY    33  16  49 S6        30.49S
LANCASTER      CLOUDY    30  17  58 E5        30.49F
COATESVILLE    CLOUDY    32  10  40 S5        30.52S
POTTSTOWN      CLEAR     26  14  60 CALM      30.54R
BLUE BELL      CLEAR     30  21  69 S5        30.53R
DOYLESTOWN     CLEAR     25  16  68 S3        30.51S
WILLOW GROVE   NOT AVBL
NORTH PHILA    CLEAR     34  21  59 SW6       30.56R
PHILADELPHIA   PTCLDY    34  24  67 SW5       30.56R
$$




USA.gov is the U.S. government's official web portal to all federal, state and local government web resources and services.